,,Stat5,,Stat1,,Stat2,,Stat3,,Stat4,,Wind1,,Wind1,
time,status,PA1M_AVG,status,PR1M_SUM,status,RH1M_AVG,status,SR1M_AVG,status,TA1M_AVG,status,W1dAve1m,status,W1sAve1m,
2002-12-14, 00:00:00,VALID,921.073,VALID,0,VALID,99.2983,VALID,0.0509425,VALID,19.7241,VALID,110,VALID,0.237689,
2002-12-14, 00:01:00,VALID,921.075,VALID,0,VALID,99.2971,VALID,0,VALID,19.7171,VALID,111,VALID,0.250217,
2002-12-14, 00:02:00,VALID,921.079,VALID,0,VALID,99.2843,VALID,0.0339617,VALID,19.7042,VALID,135,VALID,0.350361,
2002-12-14, 00:03:00,VALID,921.103,VALID,0,VALID,99.2704,VALID,0.0339617,VALID,19.688,VALID,152,VALID,0.197316,
2002-12-14, 00:04:00,VALID,921.111,VALID,0,VALID,99.2869,VALID,0,VALID,19.698,VALID,152,VALID,0.403274,
2002-12-14, 00:05:00,VALID,921.108,VALID,0,VALID,99.3085,VALID,0,VALID,19.7136,VALID,194,VALID,0.3419,
2002-12-14, 00:06:00,VALID,921.106,VALID,0,VALID,99.3212,VALID,-0.0339617,VALID,19.7208,VALID,197,VALID,0.103733,
2002-12-14, 00:07:00,VALID,921.105,VALID,0,VALID,99.3161,VALID,-0.0849042,VALID,19.7412,VALID,188,VALID,0.0316406,
2002-12-14, 00:08:00,VALID,921.105,VALID,0,VALID,99.3161,VALID,-0.0849042,VALID,19.738,VALID,188,VALID,0,
2002-12-14, 00:09:00,VALID,921.11,VALID,0,VALID,99.2996,VALID,-0.0679233,VALID,19.7353,VALID,188,VALID,0,
2002-12-14, 00:10:00,VALID,921.11,VALID,0,VALID,99.2386,VALID,-0.101885,VALID,19.6808,VALID,188,VALID,0,
2002-12-14, 00:11:00,VALID,921.113,VALID,0,VALID,99.203,VALID,-0.0849042,VALID,19.6547,VALID,188,VALID,0,
2002-12-14, 00:12:00,VALID,921.11,VALID,0,VALID,99.0198,VALID,-0.0679233,VALID,19.5802,VALID,188,VALID,0.00357143,
2002-12-14, 00:13:00,VALID,921.113,VALID,0,VALID,99.0377,VALID,-0.0679233,VALID,19.5183,VALID,100,VALID,0.347886,
2002-12-14, 00:14:00,VALID,921.119,VALID,0,VALID,99.1585,VALID,-0.0679233,VALID,19.528,VALID,90,VALID,0.23972,
2002-12-14, 00:15:00,VALID,921.129,VALID,0,VALID,99.1674,VALID,-0.0849042,VALID,19.5474,VALID,90,VALID,0.279911,
2002-12-14, 00:16:00,VALID,921.127,VALID,0,VALID,99.1635,VALID,-0.0849042,VALID,19.5635,VALID,122,VALID,0.445982,
2002-12-14, 00:17:00,VALID,921.133,VALID,0,VALID,99.1559,VALID,-0.101885,VALID,19.5702,VALID,126,VALID,0.431891,
2002-12-14, 00:18:00,VALID,921.142,VALID,0,VALID,99.2068,VALID,-0.101885,VALID,19.5767,VALID,130,VALID,0.815947,
2002-12-14, 00:19:00,VALID,921.15,VALID,0,VALID,99.2233,VALID,-0.101885,VALID,19.6025,VALID,121,VALID,0.746875,
2002-12-14, 00:20:00,VALID,921.151,VALID,0.2,VALID,99.2653,VALID,-0.0849042,VALID,19.6277,VALID,109,VALID,0.880273,
2002-12-14, 00:21:00,VALID,921.153,VALID,0,VALID,99.2704,VALID,-0.0679233,VALID,19.6801,VALID,129,VALID,0.63192,
2002-12-14, 00:22:00,VALID,921.14,VALID,0,VALID,99.2551,VALID,-0.0509425,VALID,19.6987,VALID,157,VALID,0.227941,
2002-12-14, 00:23:00,VALID,921.151,VALID,0,VALID,99.2157,VALID,-0.0169808,VALID,19.7191,VALID,136,VALID,0.136513,
2002-12-14, 00:24:00,VALID,921.143,VALID,0,VALID,99.1661,VALID,-0.0339617,VALID,19.7087,VALID,137,VALID,0.507143,
2002-12-14, 00:25:00,VALID,921.134,VALID,0,VALID,99.1406,VALID,0,VALID,19.6982,VALID,101,VALID,0.420312,
2002-12-14, 00:26:00,VALID,921.14,VALID,0,VALID,99.1063,VALID,0,VALID,19.692,VALID,96,VALID,0.498197,
2002-12-14, 00:27:00,VALID,921.142,VALID,0,VALID,99.1012,VALID,-0.0169808,VALID,19.6925,VALID,85,VALID,0.539982,
2002-12-14, 00:28:00,VALID,921.148,VALID,0,VALID,99.0555,VALID,-0.0169808,VALID,19.6766,VALID,72,VALID,0.74375,
2002-12-14, 00:29:00,VALID,921.148,VALID,0,VALID,99.1178,VALID,-0.0339617,VALID,19.6761,VALID,76,VALID,0.925977,
2002-12-14, 00:30:00,VALID,921.147,VALID,0,VALID,99.1597,VALID,-0.0169808,VALID,19.7022,VALID,76,VALID,0.818527,
2002-12-14, 00:31:00,VALID,921.137,VALID,0,VALID,99.0872,VALID,-0.0339617,VALID,19.6985,VALID,75,VALID,0.704504,
2002-12-14, 00:32:00,VALID,921.125,VALID,0,VALID,98.9957,VALID,-0.0169808,VALID,19.693,VALID,69,VALID,0.710526,
2002-12-14, 00:33:00,VALID,921.095,VALID,0,VALID,98.9156,VALID,-0.0339617,VALID,19.6696,VALID,69,VALID,0.773661,
2002-12-14, 00:34:00,VALID,921.088,VALID,0,VALID,98.8749,VALID,-0.0169808,VALID,19.6475,VALID,67,VALID,0.477232,
2002-12-14, 00:35:00,VALID,921.066,VALID,0,VALID,98.8762,VALID,-0.0509425,VALID,19.6478,VALID,82,VALID,0.74379,
2002-12-14, 00:36:00,VALID,921.045,VALID,0,VALID,98.9601,VALID,-0.0169808,VALID,19.6508,VALID,101,VALID,0.913143,
2002-12-14, 00:37:00,VALID,921.013,VALID,0,VALID,99.0122,VALID,0,VALID,19.6925,VALID,103,VALID,0.708482,
2002-12-14, 00:38:00,VALID,921.016,VALID,0,VALID,98.9563,VALID,-0.0339617,VALID,19.699,VALID,125,VALID,0.47168,
2002-12-14, 00:39:00,VALID,920.989,VALID,0,VALID,98.9792,VALID,-0.0339617,VALID,19.7084,VALID,125,VALID,0.500446,
2002-12-14, 00:40:00,VALID,920.972,VALID,0,VALID,98.9118,VALID,0,VALID,19.7253,VALID,90,VALID,0.426471,
2002-12-14, 00:41:00,VALID,920.927,VALID,0,VALID,98.6981,VALID,0,VALID,19.6729,VALID,86,VALID,0.221628,
2002-12-14, 00:42:00,VALID,920.915,VALID,0,VALID,98.4781,VALID,-0.0169808,VALID,19.5824,VALID,58,VALID,0.537054,
2002-12-14, 00:43:00,VALID,920.902,VALID,0,VALID,98.4044,VALID,-0.0169808,VALID,19.5243,VALID,44,VALID,0.567634,
2002-12-14, 00:44:00,VALID,920.895,VALID,0,VALID,98.4349,VALID,0,VALID,19.4989,VALID,44,VALID,0.614509,
2002-12-14, 00:45:00,VALID,920.87,VALID,0,VALID,98.5354,VALID,-0.0169808,VALID,19.4922,VALID,44,VALID,0.475873,
2002-12-14, 00:46:00,VALID,920.847,VALID,0,VALID,98.7312,VALID,-0.0169808,VALID,19.5114,VALID,51,VALID,0.44308,
2002-12-14, 00:47:00,VALID,920.805,VALID,0,VALID,98.8126,VALID,-0.0339617,VALID,19.5543,VALID,83,VALID,0.583008,
2002-12-14, 00:48:00,VALID,920.774,VALID,0,VALID,98.8075,VALID,-0.0339617,VALID,19.5501,VALID,113,VALID,0.549777,
2002-12-14, 00:49:00,VALID,920.755,VALID,0,VALID,98.8418,VALID,0,VALID,19.57,VALID,112,VALID,0.534697,
2002-12-14, 00:50:00,VALID,920.739,VALID,0,VALID,98.6473,VALID,-0.0339617,VALID,19.5374,VALID,81,VALID,0.438734,
2002-12-14, 00:51:00,VALID,920.723,VALID,0,VALID,98.3256,VALID,0.0169808,VALID,19.4463,VALID,46,VALID,0.537723,
2002-12-14, 00:52:00,VALID,920.719,VALID,0,VALID,98.1971,VALID,0.0509425,VALID,19.3712,VALID,47,VALID,0.460045,
2002-12-14, 00:53:00,VALID,920.705,VALID,0,VALID,98.3764,VALID,0.0849042,VALID,19.3424,VALID,49,VALID,0.433293,
2002-12-14, 00:54:00,VALID,920.688,VALID,0,VALID,98.6625,VALID,0.118866,VALID,19.3941,VALID,80,VALID,0.429458,
2002-12-14, 00:55:00,VALID,920.682,VALID,0,VALID,98.6651,VALID,0.0849042,VALID,19.4328,VALID,80,VALID,0.239063,
2002-12-14, 00:56:00,VALID,920.674,VALID,0,VALID,98.6816,VALID,0.101885,VALID,19.4425,VALID,78,VALID,0.136719,
2002-12-14, 00:57:00,VALID,920.68,VALID,0,VALID,98.3917,VALID,0.101885,VALID,19.4137,VALID,24,VALID,0.835045,
2002-12-14, 00:58:00,VALID,920.688,VALID,0,VALID,98.1017,VALID,0.0849042,VALID,19.3193,VALID,14,VALID,1.05078,
2002-12-14, 00:59:00,VALID,920.695,VALID,0,VALID,98.3306,VALID,0.0509425,VALID,19.327,VALID,13,VALID,0.241776,
2002-12-14, 01:00:00,VALID,920.69,VALID,0,VALID,98.5659,VALID,0.0509425,VALID,19.3657,VALID,13,VALID,0.00178571,
2002-12-14, 01:01:00,VALID,920.69,VALID,0,VALID,98.515,VALID,0.0679233,VALID,19.3489,VALID,13,VALID,0.200223,
2002-12-14, 01:02:00,VALID,920.682,VALID,0,VALID,98.6587,VALID,0.0679233,VALID,19.3588,VALID,74,VALID,0.441907,
2002-12-14, 01:03:00,VALID,920.669,VALID,0,VALID,98.674,VALID,0,VALID,19.3729,VALID,106,VALID,0.378217,
2002-12-14, 01:04:00,VALID,920.642,VALID,0,VALID,98.5392,VALID,-0.0509425,VALID,19.3501,VALID,148,VALID,0.431027,
2002-12-14, 01:05:00,VALID,920.631,VALID,0,VALID,98.4667,VALID,-0.0339617,VALID,19.315,VALID,145,VALID,0.218555,
2002-12-14, 01:06:00,VALID,920.613,VALID,0,VALID,98.4222,VALID,-0.0679233,VALID,19.2862,VALID,140,VALID,0.288839,
2002-12-14, 01:07:00,VALID,920.601,VALID,0,VALID,98.0712,VALID,-0.0849042,VALID,19.1831,VALID,91,VALID,0.110754,
2002-12-14, 01:08:00,VALID,920.571,VALID,0,VALID,98.0394,VALID,-0.0679233,VALID,19.0926,VALID,99,VALID,0.389803,
2002-12-14, 01:09:00,VALID,920.554,VALID,0,VALID,98.4082,VALID,-0.0849042,VALID,19.1088,VALID,152,VALID,0.677232,
2002-12-14, 01:10:00,VALID,920.523,VALID,0,VALID,98.5989,VALID,-0.0679233,VALID,19.1575,VALID,152,VALID,0.59933,
2002-12-14, 01:11:00,VALID,920.495,VALID,0,VALID,98.7096,VALID,-0.101885,VALID,19.2029,VALID,151,VALID,0.655449,
2002-12-14, 01:12:00,VALID,920.468,VALID,0,VALID,98.8456,VALID,-0.0849042,VALID,19.2479,VALID,143,VALID,0.525276,
2002-12-14, 01:13:00,VALID,920.448,VALID,0,VALID,98.8316,VALID,-0.0849042,VALID,19.2703,VALID,147,VALID,0.660491,
2002-12-14, 01:14:00,VALID,920.432,VALID,0,VALID,98.7401,VALID,-0.0849042,VALID,19.2767,VALID,130,VALID,0.612305,
2002-12-14, 01:15:00,VALID,920.419,VALID,0,VALID,98.6854,VALID,-0.101885,VALID,19.2675,VALID,131,VALID,0.475893,
2002-12-14, 01:16:00,VALID,920.398,VALID,0,VALID,98.7744,VALID,-0.101885,VALID,19.277,VALID,120,VALID,0.715533,
2002-12-14, 01:17:00,VALID,920.403,VALID,0,VALID,98.9258,VALID,-0.101885,VALID,19.3128,VALID,122,VALID,0.826275,
2002-12-14, 01:18:00,VALID,920.378,VALID,0,VALID,98.9334,VALID,-0.0849042,VALID,19.3543,VALID,122,VALID,0.80067,
2002-12-14, 01:19:00,VALID,920.374,VALID,0,VALID,98.9067,VALID,-0.101885,VALID,19.3868,VALID,120,VALID,0.520536,
2002-12-14, 01:20:00,VALID,920.346,VALID,0,VALID,98.8762,VALID,-0.0849042,VALID,19.4291,VALID,120,VALID,0.557893,
2002-12-14, 01:21:00,VALID,920.341,VALID,0,VALID,98.7261,VALID,-0.0679233,VALID,19.438,VALID,120,VALID,0.597886,
2002-12-14, 01:22:00,VALID,920.323,VALID,0,VALID,98.688,VALID,0,VALID,19.45,VALID,112,VALID,0.845536,
2002-12-14, 01:23:00,VALID,920.318,VALID,0,VALID,98.4947,VALID,0,VALID,19.4572,VALID,95,VALID,0.721484,
2002-12-14, 01:24:00,VALID,920.319,VALID,0,VALID,98.3942,VALID,0,VALID,19.441,VALID,88,VALID,0.825446,
2002-12-14, 01:25:00,VALID,920.305,VALID,0,VALID,98.337,VALID,0.0169808,VALID,19.4209,VALID,92,VALID,0.821002,
2002-12-14, 01:26:00,VALID,920.299,VALID,0,VALID,98.3675,VALID,0,VALID,19.4467,VALID,111,VALID,0.842516,
2002-12-14, 01:27:00,VALID,920.278,VALID,0,VALID,98.1857,VALID,0.0339617,VALID,19.4659,VALID,114,VALID,0.754464,
2002-12-14, 01:28:00,VALID,920.283,VALID,0,VALID,98.0661,VALID,0,VALID,19.4862,VALID,114,VALID,0.81942,
2002-12-14, 01:29:00,VALID,920.248,VALID,0,VALID,97.9034,VALID,0.0339617,VALID,19.489,VALID,105,VALID,0.564904,
2002-12-14, 01:30:00,VALID,920.228,VALID,0,VALID,97.7381,VALID,0,VALID,19.4758,VALID,108,VALID,0.465763,
2002-12-14, 01:31:00,VALID,920.207,VALID,0,VALID,97.6287,VALID,0.0339617,VALID,19.4726,VALID,103,VALID,0.422098,
2002-12-14, 01:32:00,VALID,920.191,VALID,0,VALID,97.4507,VALID,0.0339617,VALID,19.4659,VALID,111,VALID,0.407031,
2002-12-14, 01:33:00,VALID,920.177,VALID,0,VALID,97.1595,VALID,0.0169808,VALID,19.4209,VALID,143,VALID,0.562054,
2002-12-14, 01:34:00,VALID,920.164,VALID,0,VALID,97.2447,VALID,0.0339617,VALID,19.3849,VALID,145,VALID,0.680147,
2002-12-14, 01:35:00,VALID,920.145,VALID,0,VALID,97.2917,VALID,0.0169808,VALID,19.356,VALID,152,VALID,0.798109,
2002-12-14, 01:36:00,VALID,920.133,VALID,0,VALID,97.5804,VALID,0.0679233,VALID,19.3531,VALID,163,VALID,0.813616,
2002-12-14, 01:37:00,VALID,920.129,VALID,0,VALID,97.7228,VALID,0.0169808,VALID,19.3533,VALID,150,VALID,0.71808,
2002-12-14, 01:38:00,VALID,920.13,VALID,0,VALID,97.8207,VALID,0.0169808,VALID,19.327,VALID,150,VALID,1.02865,
2002-12-14, 01:39:00,VALID,920.14,VALID,0,VALID,97.9581,VALID,0,VALID,19.3212,VALID,150,VALID,0.950827,
2002-12-14, 01:40:00,VALID,920.153,VALID,0,VALID,98.1755,VALID,0,VALID,19.2949,VALID,142,VALID,0.833929,
2002-12-14, 01:41:00,VALID,920.15,VALID,0,VALID,98.3052,VALID,0.0169808,VALID,19.2817,VALID,146,VALID,0.842383,
2002-12-14, 01:42:00,VALID,920.155,VALID,0,VALID,98.4336,VALID,0.0169808,VALID,19.2624,VALID,142,VALID,0.605134,
2002-12-14, 01:43:00,VALID,920.158,VALID,0,VALID,98.4769,VALID,0,VALID,19.2562,VALID,137,VALID,0.358456,
2002-12-14, 01:44:00,VALID,920.163,VALID,0,VALID,98.5125,VALID,0.0169808,VALID,19.2278,VALID,139,VALID,0.455592,
2002-12-14, 01:45:00,VALID,920.156,VALID,0,VALID,98.6078,VALID,0,VALID,19.2179,VALID,147,VALID,0.610937,
2002-12-14, 01:46:00,VALID,920.156,VALID,0,VALID,98.7032,VALID,0.0509425,VALID,19.2142,VALID,157,VALID,0.64308,
2002-12-14, 01:47:00,VALID,920.163,VALID,0,VALID,98.7986,VALID,0.0169808,VALID,19.2176,VALID,157,VALID,0.558093,
2002-12-14, 01:48:00,VALID,920.152,VALID,0,VALID,98.838,VALID,0.0339617,VALID,19.2338,VALID,162,VALID,0.617877,
2002-12-14, 01:49:00,VALID,920.15,VALID,0,VALID,98.8825,VALID,0.0169808,VALID,19.2365,VALID,161,VALID,0.452009,
2002-12-14, 01:50:00,VALID,920.158,VALID,0,VALID,98.8889,VALID,0.0339617,VALID,19.2562,VALID,154,VALID,0.329883,
2002-12-14, 01:51:00,VALID,920.156,VALID,0,VALID,98.8316,VALID,0.0169808,VALID,19.2564,VALID,155,VALID,0.322768,
2002-12-14, 01:52:00,VALID,920.154,VALID,0,VALID,98.6473,VALID,0.0169808,VALID,19.2271,VALID,156,VALID,0.0714614,
2002-12-14, 01:53:00,VALID,920.152,VALID,0,VALID,98.6002,VALID,0,VALID,19.1851,VALID,159,VALID,0.277755,
2002-12-14, 01:54:00,VALID,920.162,VALID,0,VALID,98.66,VALID,0.0339617,VALID,19.1791,VALID,158,VALID,0.418973,
2002-12-14, 01:55:00,VALID,920.158,VALID,0,VALID,98.7948,VALID,0.0169808,VALID,19.2047,VALID,145,VALID,0.45558,
2002-12-14, 01:56:00,VALID,920.158,VALID,0,VALID,98.8787,VALID,0.0339617,VALID,19.237,VALID,163,VALID,0.370192,
2002-12-14, 01:57:00,VALID,920.153,VALID,0,VALID,98.8723,VALID,0.0169808,VALID,19.279,VALID,170,VALID,0.332031,
2002-12-14, 01:58:00,VALID,920.167,VALID,0,VALID,98.8075,VALID,0.0169808,VALID,19.2889,VALID,168,VALID,0.224777,
2002-12-14, 01:59:00,VALID,920.176,VALID,0,VALID,98.8355,VALID,0.0169808,VALID,19.3081,VALID,164,VALID,0.308398,
2002-12-14, 02:00:00,VALID,920.174,VALID,0,VALID,98.7808,VALID,0,VALID,19.3237,VALID,152,VALID,0.36183,
2002-12-14, 02:01:00,VALID,920.178,VALID,0,VALID,98.6117,VALID,0.0169808,VALID,19.3372,VALID,152,VALID,0.133961,
2002-12-14, 02:02:00,VALID,920.175,VALID,0,VALID,98.604,VALID,0.0339617,VALID,19.3436,VALID,173,VALID,0.627673,
2002-12-14, 02:03:00,VALID,920.164,VALID,0,VALID,98.5862,VALID,0,VALID,19.3531,VALID,176,VALID,0.690179,
2002-12-14, 02:04:00,VALID,920.152,VALID,0,VALID,98.4959,VALID,0,VALID,19.3762,VALID,173,VALID,0.790402,
2002-12-14, 02:05:01,VALID,920.131,VALID,0,VALID,98.4209,VALID,0,VALID,19.3727,VALID,179,VALID,0.909255,
2002-12-14, 02:06:00,VALID,920.107,VALID,0,VALID,98.3561,VALID,0,VALID,19.3861,VALID,171,VALID,0.674173,
2002-12-14, 02:07:00,VALID,920.079,VALID,0,VALID,98.3116,VALID,0.0169808,VALID,19.3859,VALID,168,VALID,0.385714,
2002-12-14, 02:08:00,VALID,920.049,VALID,0,VALID,98.2976,VALID,0,VALID,19.3953,VALID,162,VALID,0.554688,
2002-12-14, 02:09:00,VALID,920.024,VALID,0,VALID,98.2747,VALID,0.0169808,VALID,19.411,VALID,147,VALID,0.703348,
2002-12-14, 02:10:00,VALID,919.99,VALID,0,VALID,98.1552,VALID,0.0339617,VALID,19.4115,VALID,131,VALID,0.601792,
2002-12-14, 02:11:00,VALID,919.976,VALID,0,VALID,97.9809,VALID,0,VALID,19.3854,VALID,104,VALID,0.525699,
2002-12-14, 02:12:00,VALID,919.967,VALID,0,VALID,98.0814,VALID,0.0679233,VALID,19.3951,VALID,99,VALID,0.512723,
2002-12-14, 02:13:01,VALID,919.977,VALID,0,VALID,98.0051,VALID,0.0169808,VALID,19.4008,VALID,72,VALID,0.478125,
2002-12-14, 02:14:00,VALID,919.978,VALID,0,VALID,98.0344,VALID,0.0339617,VALID,19.4343,VALID,104,VALID,0.519832,
2002-12-14, 02:15:00,VALID,919.975,VALID,0,VALID,97.9771,VALID,0.0169808,VALID,19.4276,VALID,89,VALID,0.383961,
2002-12-14, 02:16:00,VALID,919.957,VALID,0,VALID,97.7915,VALID,0.0339617,VALID,19.398,VALID,69,VALID,0.554911,
2002-12-14, 02:17:00,VALID,919.95,VALID,0,VALID,97.574,VALID,0.0509425,VALID,19.3692,VALID,48,VALID,0.554297,
2002-12-14, 02:18:00,VALID,919.928,VALID,0,VALID,97.3718,VALID,0.0169808,VALID,19.3178,VALID,43,VALID,0.652455,
2002-12-14, 02:19:00,VALID,919.93,VALID,0,VALID,97.1519,VALID,0.0339617,VALID,19.2529,VALID,42,VALID,0.594439,
2002-12-14, 02:20:00,VALID,919.919,VALID,0,VALID,96.9993,VALID,0.0339617,VALID,19.1821,VALID,36,VALID,0.683799,
2002-12-14, 02:21:00,VALID,919.907,VALID,0,VALID,97.1188,VALID,0.0509425,VALID,19.1205,VALID,27,VALID,0.769196,
2002-12-14, 02:22:00,VALID,919.908,VALID,0,VALID,97.1353,VALID,0,VALID,19.0887,VALID,27,VALID,0.701786,
2002-12-14, 02:23:00,VALID,919.889,VALID,0,VALID,97.1493,VALID,0,VALID,19.0114,VALID,27,VALID,0.841346,
2002-12-14, 02:24:00,VALID,919.879,VALID,0,VALID,97.5575,VALID,0.0169808,VALID,18.9947,VALID,27,VALID,0.752987,
2002-12-14, 02:25:00,VALID,919.852,VALID,0,VALID,97.7393,VALID,0.0509425,VALID,18.9851,VALID,27,VALID,0.753348,
2002-12-14, 02:26:00,VALID,919.827,VALID,0,VALID,97.9619,VALID,0.0169808,VALID,18.9719,VALID,24,VALID,0.729492,
2002-12-14, 02:27:00,VALID,919.795,VALID,0,VALID,97.9631,VALID,0.0169808,VALID,18.9592,VALID,22,VALID,0.560268,
2002-12-14, 02:28:00,VALID,919.782,VALID,0,VALID,97.972,VALID,0.0169808,VALID,18.917,VALID,22,VALID,0.455193,
2002-12-14, 02:29:00,VALID,919.764,VALID,0,VALID,98.0916,VALID,0.0679233,VALID,18.9006,VALID,21,VALID,0.483964,
2002-12-14, 02:30:00,VALID,919.752,VALID,0,VALID,98.192,VALID,0,VALID,18.8849,VALID,21,VALID,0.397098,
2002-12-14, 02:31:01,VALID,919.725,VALID,0,VALID,98.2989,VALID,0.0169808,VALID,18.8842,VALID,21,VALID,0.0939732,
2002-12-14, 02:32:01,VALID,919.711,VALID,0,VALID,98.3904,VALID,0.0849042,VALID,18.8815,VALID,21,VALID,0,
2002-12-14, 02:33:00,VALID,919.703,VALID,0,VALID,98.487,VALID,0.0169808,VALID,18.8953,VALID,21,VALID,0.194623,
2002-12-14, 02:34:00,VALID,919.688,VALID,0,VALID,98.6206,VALID,0,VALID,18.9078,VALID,21,VALID,0.43683,
2002-12-14, 02:35:00,VALID,919.681,VALID,0,VALID,98.7185,VALID,0.0169808,VALID,18.914,VALID,22,VALID,0.393555,
2002-12-14, 02:36:00,VALID,919.682,VALID,0,VALID,98.7477,VALID,0.0509425,VALID,18.9239,VALID,22,VALID,0.222321,
2002-12-14, 02:37:00,VALID,919.673,VALID,0,VALID,98.6269,VALID,0.0339617,VALID,18.8976,VALID,34,VALID,0.330653,
2002-12-14, 02:38:01,VALID,919.673,VALID,0,VALID,98.8469,VALID,0.0339617,VALID,18.8914,VALID,112,VALID,0.513775,
2002-12-14, 02:39:00,VALID,919.677,VALID,0,VALID,98.9588,VALID,0.0339617,VALID,18.92,VALID,122,VALID,0.594866,
2002-12-14, 02:40:01,VALID,919.677,VALID,0,VALID,98.9868,VALID,0.0339617,VALID,18.9428,VALID,119,VALID,0.465179,
2002-12-14, 02:41:01,VALID,919.662,VALID,0,VALID,98.9626,VALID,0.0339617,VALID,18.9465,VALID,119,VALID,0.266026,
2002-12-14, 02:42:00,VALID,919.67,VALID,0,VALID,98.9626,VALID,0.0169808,VALID,18.9498,VALID,119,VALID,0.177619,
2002-12-14, 02:43:00,VALID,919.669,VALID,0,VALID,98.9741,VALID,0.0169808,VALID,18.9368,VALID,119,VALID,0,
2002-12-14, 02:44:00,VALID,919.655,VALID,0,VALID,98.9715,VALID,0.0169808,VALID,18.9336,VALID,119,VALID,0.0820313,
2002-12-14, 02:45:00,VALID,919.649,VALID,0,VALID,98.9842,VALID,0.0169808,VALID,18.9205,VALID,126,VALID,0.335938,
2002-12-14, 02:46:00,VALID,919.644,VALID,0,VALID,99.03,VALID,0.0509425,VALID,18.9135,VALID,135,VALID,0.439568,
2002-12-14, 02:47:01,VALID,919.638,VALID,0,VALID,99.0097,VALID,0.0509425,VALID,18.9041,VALID,153,VALID,0.52426,
2002-12-14, 02:48:00,VALID,919.63,VALID,0,VALID,99.072,VALID,0.0339617,VALID,18.8983,VALID,154,VALID,0.617634,
2002-12-14, 02:49:01,VALID,919.633,VALID,0,VALID,99.1572,VALID,0.0169808,VALID,18.9172,VALID,154,VALID,0.685268,
2002-12-14, 02:50:01,VALID,919.626,VALID,0,VALID,99.1699,VALID,0.0169808,VALID,18.9207,VALID,154,VALID,0.511619,
2002-12-14, 02:51:00,VALID,919.614,VALID,0,VALID,99.203,VALID,0,VALID,18.9339,VALID,153,VALID,0.502528,
2002-12-14, 02:52:00,VALID,919.613,VALID,0,VALID,99.2208,VALID,0.0169808,VALID,18.9371,VALID,151,VALID,0.437946,
2002-12-14, 02:53:00,VALID,919.594,VALID,0,VALID,99.264,VALID,0,VALID,18.9532,VALID,127,VALID,0.289258,
2002-12-14, 02:54:00,VALID,919.565,VALID,0,VALID,99.2513,VALID,0,VALID,18.9368,VALID,92,VALID,0.500223,
2002-12-14, 02:55:00,VALID,919.521,VALID,0,VALID,99.2615,VALID,0,VALID,18.9272,VALID,76,VALID,0.389246,
2002-12-14, 02:56:00,VALID,919.5,VALID,0,VALID,99.25,VALID,0.0169808,VALID,18.914,VALID,78,VALID,0.671464,
2002-12-14, 02:57:00,VALID,919.476,VALID,0,VALID,99.2869,VALID,0,VALID,18.9239,VALID,78,VALID,0.764063,
2002-12-14, 02:58:01,VALID,919.436,VALID,0,VALID,99.2716,VALID,0.0339617,VALID,18.9145,VALID,73,VALID,0.735937,
2002-12-14, 02:59:01,VALID,919.41,VALID,0,VALID,99.2347,VALID,0.0169808,VALID,18.8919,VALID,76,VALID,0.826923,
2002-12-14, 03:00:00,VALID,919.389,VALID,0,VALID,99.3136,VALID,0,VALID,18.9018,VALID,97,VALID,0.597197,
2002-12-14, 03:01:00,VALID,919.362,VALID,0,VALID,99.3517,VALID,0.0169808,VALID,18.9473,VALID,112,VALID,0.628571,
2002-12-14, 03:02:00,VALID,919.342,VALID,0,VALID,99.3365,VALID,0,VALID,18.9763,VALID,105,VALID,0.51582,
2002-12-14, 03:03:00,VALID,919.325,VALID,0,VALID,99.2602,VALID,0,VALID,18.9726,VALID,81,VALID,0.434598,
2002-12-14, 03:04:00,VALID,919.321,VALID,0,VALID,99.1406,VALID,0.0169808,VALID,18.9495,VALID,118,VALID,0.592601,
2002-12-14, 03:05:00,VALID,919.312,VALID,0,VALID,99.1127,VALID,0.0339617,VALID,18.9595,VALID,125,VALID,0.582648,
2002-12-14, 03:06:01,VALID,919.291,VALID,0,VALID,99.0694,VALID,0.0339617,VALID,18.9788,VALID,118,VALID,0.798661,
2002-12-14, 03:07:01,VALID,919.279,VALID,0,VALID,98.9982,VALID,0.0169808,VALID,18.9982,VALID,96,VALID,0.867857,
2002-12-14, 03:08:01,VALID,919.245,VALID,0,VALID,98.983,VALID,0.0679233,VALID,18.9908,VALID,103,VALID,0.738982,
2002-12-14, 03:09:00,VALID,919.221,VALID,0,VALID,98.9779,VALID,0.0339617,VALID,19.0395,VALID,115,VALID,0.719439,
2002-12-14, 03:10:00,VALID,919.169,VALID,0,VALID,98.8469,VALID,0.0339617,VALID,19.1078,VALID,99,VALID,0.619792,
2002-12-14, 03:11:00,VALID,919.169,VALID,0,VALID,98.7846,VALID,0.0169808,VALID,19.1207,VALID,105,VALID,0.74043,
2002-12-14, 03:12:00,VALID,919.161,VALID,0,VALID,98.7655,VALID,0.0509425,VALID,19.1595,VALID,113,VALID,0.842634,
2002-12-14, 03:13:00,VALID,919.153,VALID,0,VALID,98.6524,VALID,0.0339617,VALID,19.1918,VALID,97,VALID,0.806985,
2002-12-14, 03:14:01,VALID,919.167,VALID,0,VALID,98.4603,VALID,0.0679233,VALID,19.2109,VALID,97,VALID,0.714021,
2002-12-14, 03:15:00,VALID,919.164,VALID,0,VALID,98.3701,VALID,0.0679233,VALID,19.2335,VALID,120,VALID,0.646652,
2002-12-14, 03:16:01,VALID,919.18,VALID,0,VALID,98.3052,VALID,0.0509425,VALID,19.2661,VALID,121,VALID,0.38058,
2002-12-14, 03:17:01,VALID,919.2,VALID,0,VALID,98.2022,VALID,0.0509425,VALID,19.2624,VALID,135,VALID,0.713542,
2002-12-14, 03:18:00,VALID,919.198,VALID,0,VALID,98.0445,VALID,0.0849042,VALID,19.2661,VALID,101,VALID,0.471967,
2002-12-14, 03:19:00,VALID,919.216,VALID,0,VALID,97.9479,VALID,0.0679233,VALID,19.2559,VALID,111,VALID,0.419866,
2002-12-14, 03:20:00,VALID,919.222,VALID,0,VALID,97.9593,VALID,0.0509425,VALID,19.2494,VALID,158,VALID,0.160547,
2002-12-14, 03:21:00,VALID,919.224,VALID,0,VALID,97.967,VALID,0.0679233,VALID,19.2435,VALID,159,VALID,0.422991,
2002-12-14, 03:22:00,VALID,919.223,VALID,0,VALID,97.8958,VALID,0,VALID,19.238,VALID,156,VALID,0.160616,
2002-12-14, 03:23:01,VALID,919.23,VALID,0,VALID,97.9199,VALID,-0.0339617,VALID,19.2089,VALID,145,VALID,0.601974,
2002-12-14, 03:24:00,VALID,919.226,VALID,0,VALID,97.9606,VALID,0,VALID,19.2054,VALID,152,VALID,0.744196,
2002-12-14, 03:25:01,VALID,919.218,VALID,0,VALID,98.0522,VALID,0,VALID,19.1893,VALID,140,VALID,0.688393,
2002-12-14, 03:26:01,VALID,919.23,VALID,0,VALID,98.0674,VALID,-0.0169808,VALID,19.1863,VALID,135,VALID,0.713141,
2002-12-14, 03:27:00,VALID,919.225,VALID,0,VALID,98.2175,VALID,-0.0849042,VALID,19.1667,VALID,136,VALID,0.741498,
2002-12-14, 03:28:00,VALID,919.225,VALID,0,VALID,98.2022,VALID,-0.0509425,VALID,19.1706,VALID,128,VALID,0.754241,
2002-12-14, 03:29:00,VALID,919.237,VALID,0,VALID,98.1323,VALID,-0.0169808,VALID,19.1602,VALID,135,VALID,0.448828,
2002-12-14, 03:30:00,VALID,919.229,VALID,0,VALID,98.1246,VALID,-0.0339617,VALID,19.1575,VALID,134,VALID,0.767634,
2002-12-14, 03:31:00,VALID,919.247,VALID,0,VALID,98.1666,VALID,-0.0169808,VALID,19.1609,VALID,119,VALID,0.528952,
2002-12-14, 03:32:00,VALID,919.258,VALID,0,VALID,98.1259,VALID,-0.0339617,VALID,19.1604,VALID,122,VALID,0.568668,